Portada
METAR-TAF:

METAR-TAF

Aeroports :

San Juan de los Morros, Veneçuela

latitud: 09-55N, longitud: 067-20W, altitud: 429 m

Observació

L'informe es va fer fa 52 minuts, a les 13:02 UTC
Vent 2 kt del Nord
Temperatura 24°C
Humitat 83%
Pressió 1015 hPa

METAR: SVJM 261302Z AUTO 35002KT NCD 24/21 Q1015

Hora: 09:54 (13:54 UTC)


TAF: manca

Observacions i pronòstics meteorològics de més de 4000 aeroports (METAR i TAF).

Les estacions disponibles són els punts grocs i vermells al mapa.

Posi el ratolí al punt desitjat per veure el nom de l'estació.

Feu clic per veure les observacions i els pronòstics meteorològics.

Per canviar el mapa: feu clic els botons verds amb una creu de color negre per apropar; al botó verd amb un guió per allunyar la imatge; o en les fletxes verdes per a mapes adjacents.


METAR-TAF: